Location: Ward Pound Ridge Reservation
(41.2500°N, 73.6000°W)
Time: 09:42:41
(UTC-04:00)

Vanguard 1 - Visible Passes

Search period start: 19 April 2018 00:00
Search period end: 29 April 2018 00:00
Orbit: 650 x 3833 km, 34.2° (Epoch: 18 April)

Date Brightness Start Highest point End Pass type
(mag) Time Alt. Az. Time Alt. Az. Time Alt. Az.
19 Apr 11.7 02:11:58 28° ESE 02:11:58 28° ESE 02:16:42 10° E visible
19 Apr 11.3 04:24:41 27° WSW 04:28:53 47° S 04:41:22 10° ESE visible
20 Apr 11.4 02:31:54 34° SE 02:31:54 34° SE 02:37:58 10° ESE visible
20 Apr 11.5 04:44:37 19° WSW 04:49:54 41° SSW 05:02:13 10° SE visible
21 Apr 11.1 02:51:53 40° SE 02:51:53 40° SE 02:59:08 10° ESE visible
21 Apr 11.8 05:04:36 13° WSW 05:10:57 34° SSW 05:22:47 10° SE visible
22 Apr 10.9 03:11:55 42° SSE 03:11:55 42° SSE 03:20:13 10° ESE visible
22 Apr 12.1 05:25:08 10° WSW 05:32:02 28° SSW 05:42:56 10° SSE visible
23 Apr 10.9 03:32:02 39° S 03:32:02 39° S 03:41:08 10° SE visible
24 Apr 11.1 03:52:13 32° SSW 03:52:46 33° SSW 04:01:49 10° SE visible
25 Apr 12.5 01:59:45 11° ESE 01:59:45 11° ESE 02:00:10 10° ESE visible
25 Apr 11.3 04:12:30 25° SSW 04:13:46 27° SSW 04:22:10 10° SSE visible
26 Apr 12.4 02:20:05 13° SE 02:20:05 13° SE 02:21:04 10° SE visible
26 Apr 11.6 04:32:51 19° SW 04:34:47 21° SSW 04:42:03 10° SSE visible
26 Apr 11.5 21:52:29 10° SSW 21:53:04 12° SSW 21:53:04 12° SSW visible
27 Apr 12.3 02:40:30 14° SE 02:40:30 14° SE 02:41:48 10° SE visible
27 Apr 12.0 04:53:16 13° SW 04:55:51 15° SSW 05:01:09 10° S visible
27 Apr 11.5 22:12:46 10° SW 22:13:28 13° SW 22:13:28 13° SW visible
28 Apr 12.3 03:00:59 13° SSE 03:00:59 13° SSE 03:02:15 10° SE visible
28 Apr 11.3 20:15:09 10° S 20:17:49 13° SSE 20:20:09 10° SE visible
28 Apr 11.6 22:33:19 10° SW 22:33:50 12° SW 22:33:50 12° SW visible
